Regional Weather Roundup
Issued by NWS Jackson, KY

Home | Current Version | Previous Version | Text Only | Print | Product List | Glossary Off
Versions: 1 2 3 4 5 6 7 8 9 10 11 12 13 14 15 16 17 18 19 20 21 22 23 24 25 26 27 28 29 30 31 32 33 34 35 36 37 38 39 40 41 42 43 44 45 46 47 48 49 50

000
ASUS43 KJKL 012210
RWRJKL

EAST KENTUCKY HOURLY WEATHER ROUNDUP
NATIONAL WEATHER SERVICE JACKSON KY
600 PM EDT WED OCT 01 2014

NOTE: "FAIR" INDICATES FEW OR NO CLOUDS BELOW 12,000 FEET WITH
NO SIGNIFICANT WEATHER AND/OR OBSTRUCTIONS TO VISIBILITY.

* THESE REPORTS ARE NOT UNDER NWS QUALITY CONTROL AND MAY NOT
  REPORT WEATHER SUCH AS PRECIPITATION AND FOG.

KYZ079-080-083-085-087-088-110-112-115-119-120-012300
...EASTERN KENTUCKY...

CITY           SKY/WX    TMP DP  RH WIND       PRES   REMARKS
JACKSON        PTSUNNY   75  59  57 CALM      30.01S
LONDON         SUNNY     81  52  36 W6        30.00S
SOMERSET*      SUNNY     81  50  34 S6        29.98F
MONTICELLO*    MOSUNNY   82  54  38 CALM      29.99S
MIDDLESBORO*   SUNNY     78  58  49 CALM      30.00S
HARLAN APT*    CLEAR     73  54  49 NE7       30.02R
HAZARD APT*    CLEAR     77  59  53 CALM      30.00S
BLACK MTN*       N/A     64  52  63 VRB1        N/A
PIKEVILLE APT* PTSUNNY   73  59  60 CALM      30.02S
BIG SANDY*     PTCLDY    75  61  60 CALM      30.01S
MOREHEAD APT*  CLEAR     79  57  47 VRB3      30.01S
$$

KYZ035-036-041-042-044-050-067-078-099-012300
...CENTRAL KENTUCKY...

CITY           SKY/WX    TMP DP  RH WIND       PRES   REMARKS
MT STERLING*   SUNNY     79  61  53 N3        30.00S
FLEMING/MASON* SUNNY     77  59  53 CALM      30.00S
DANVILLE*      SUNNY     81  52  36 SW3       29.98F
RICHMOND*      CLOUDY    79  57  47 E6        29.97F
LEXINGTON      SUNNY     81  56  42 N5        29.98S
FRANKFORT      SUNNY     80  55  42 CALM      29.96S
$$

KYZ091>093-OHZ055-061-077-WVZ005-015-034-035-042-012300
...SOUTHERN OHIO/WEST VIRGINIA...

CITY           SKY/WX    TMP DP  RH WIND       PRES   REMARKS
COVINGTON      MOSUNNY   77  54  44 N3        29.98S
COLUMBUS       MOSUNNY   69  48  47 CALM      30.00S
DAYTON         SUNNY     67  51  56 S7        30.01F
WILMINGTON     SUNNY     71  43  36 CALM      30.00F
HUNTINGTON     SUNNY     72  61  68 NE5       29.99S
CHARLESTON     MOSUNNY   70  59  68 NE3       30.01S
PINEVILLE*     SUNNY     69  63  82 MISG      30.08S
BECKLEY        MOSUNNY   72  52  49 NW8       30.06R
BLUEFIELD      MOSUNNY   72  49  44 VRB3      30.08R
$$

VAZ002-007-008-TNZ017-027-036-066-071-012300
...SOUTHWEST VIRGINIA/EAST TENNESSEE...

CITY           SKY/WX    TMP DP  RH WIND       PRES   REMARKS
WISE*          SUNNY     73  46  38 NW6       30.08S
JONESVILLE*    PTCLDY    77  54  44 CALM      30.03S
ABINGDON*      CLOUDY    77  53  43 CALM      30.05R
BRISTOL        MOSUNNY   80  47  31 N3        30.01S
KNOXVILLE      MOSUNNY   82  52  35 NW5       29.98S
OAK RIDGE      SUNNY     82  48  30 CALM      30.00S
CROSSVILLE     SUNNY     79  46  31 VRB3      30.02S
NASHVILLE      MOSUNNY   86  55  34 E7        29.93S
$$

...KEY TO REMARKS...
VSB - VISIBILITY IN MILES
WCI - WIND CHILL INDEX
HX  - HEAT INDEX

$$


USA.gov is the U.S. government's official web portal to all federal, state and local government web resources and services.